Regional Weather Roundup
Issued by NWS

Home | Current Version | Previous Version | Text Only | Print | Product List | Glossary Off
Versions: 1 2 3 4 5 6 7 8 9 10 11 12 13 14 15 16 17 18 19 20 21 22 23 24 25 26 27 28 29 30 31 32 33 34 35 36 37 38 39 40 41 42 43 44 45 46 47 48 49 50

329
ASUS45 KCYS 251410
RWRWY

WYOMING REGIONAL WEATHER ROUNDUP
NATIONAL WEATHER SERVICE CHEYENNE WY
800 AM MDT TUE APR 25 2017

NOTE:  "FAIR" INDICATES FEW OR NO CLOUDS BELOW 12,000 FEET
WITH NO SIGNIFICANT WEATHER AND/OR OBSTRUCTIONS TO VISIBILITY.

WYZ001-251500-
YELLOWSTONE NATIONAL PARK

CITY           SKY/WX    TMP DP  RH WIND       PRES   REMARKS
LK YELLOWSTONE   N/A     28  27  96 CALM      29.69R
W YELLOWSTONE  NOT AVBL

$$
WYZ002>013-054>058-071-098>099-251500-
NORTHERN WYOMING

CITY           SKY/WX    TMP DP  RH WIND       PRES   REMARKS
JACKSON        LGT SNOW  34  34 100 SW3       29.67R
CODY           LGT SNOW  34  32  92 N14       29.71R FOG     WCI  25
GREYBULL       CLOUDY    38  30  73 NW28      29.61R WCI  26
WORLAND        CLOUDY    40  36  86 NW25G32   29.59R WCI  29
SHERIDAN       HVY SNOW  33  32  96 NW10      29.73R VSB 1/4 WCI  25
BUFFALO        NOT AVBL
GILLETTE       LGT SNOW  29  32 100 N21       29.61R WCI  16
HULETT         SNOW      28  27  93 NE14G21   29.66R VSB 1/2 WCI  17
NEWCASTLE      RAIN      37  36  93 S14       29.57R WCI  29

$$
WYZ014>020-022>026-101>103-251500-
CENTRAL WYOMING

CITY           SKY/WX    TMP DP  RH WIND       PRES   REMARKS
BIG PINEY      CLOUDY    32  28  85 SW3       29.68R
PINEDALE       PTSUNNY   32  30  93 NW5       29.67S WCI  27
DUBOIS         CLOUDY    34  27  75 NW9       29.63R WCI  26
LANDER         CLOUDY    35  30  82 N7        29.61R WCI  29
RIVERTON       RAIN      36  34  92 N13       29.62R FOG     WCI  27
CASPER         SNOW      32  31  96 N20G28    29.59R VSB 1/2 WCI  20
DOUGLAS        CLOUDY    36  33  89 W16       29.57R WCI  26

$$
WYZ021-027>030-104>119-251500-
SOUTHERN WYOMING

CITY           SKY/WX    TMP DP  RH WIND       PRES   REMARKS
EVANSTON       FLURRIES  31  31 100 W7        29.72R WCI  24
KEMMERER         N/A     30  30 100 NW3       29.72R
FORT BRIDGER   CLOUDY    33  33 100 W9        29.75R WCI  26
ROCK SPRINGS   FAIR      34  29  82 W20       29.68R WCI  23
DIXON            N/A     35  29  78 W5        29.71S WCI  31
RAWLINS        CLOUDY    35  27  72 W24G31    29.62F WCI  23
SARATOGA       CLOUDY    36  28  75 W14G20    29.66S WCI  27
LARAMIE        FAIR      34  26  72 W15       29.60R WCI  24
CHEYENNE       FAIR      42  29  59 W3        29.56S
TORRINGTON     FAIR      44  36  73 NW7       29.54R
PINE BLUFFS    FAIR      43  36  75 N7        29.58R

$$




USA.gov is the U.S. government's official web portal to all federal, state and local government web resources and services.